[[{"header":{"parameterUnit":"m.s-1","parameterCategory":2,"la1":30.2991,"la2":30.254,"lo1":-89.0895,"lo2":-89.0444,"dy":0.0017,"dx":0.0017,"nx":28,"ny":28,"refTime":"2025-09-07T09:00:00:Z","depth":"0","parameterNumber":2,"parameterNumberName":"U-component_of_CURRENTS"},"data":[0,0,0,0,0,0,0,0,0,0,0,0,0,0,0,0,0,0,0,0,0,0,0,0,0,0,0,0,0,0,0,0,0,0,0,0,0,0,0,0,0,0,0,0,0,0,0,0,0,0,0,0,0,0,0,0,0,0,0.1925,0.1925,0,0.1957,0.1957,0.1957,0.1956,0.1956,0.1956,0.1956,0.1927,0.1927,0.1926,0,0,0,0,0,0,0,0,0,0,0,0,0,0.1837,0.1839,0.1924,0.1925,0.1926,0.1957,0.1957,0.1957,0.1956,0.1956,0.1956,0.1956,0.1928,0.1927,0.1926,0,0,0,0,0,0,0,0,0,0,0,0,0,0.1869,0.1839,0.1924,0.1932,0.1934,0.1957,0.1957,0.1957,0.1956,0.1956,0.1956,0.1955,0.1928,0.1927,0.1926,0.1922,0,0,0.1923,0.1922,0,0,0,0,0,0,0,0,0.1867,0.1872,0.193,0.1932,0.1933,0.1956,0.1916,0.1944,0.1956,0.1943,0.1956,0.1955,0.1934,0.1933,0.1934,0.1921,0.1919,0.1923,0.1922,0.1922,0.1921,0,0,0,0,0,0,0,0.1865,0.187,0.1933,0.1931,0.1933,0.1926,0.193,0.1921,0.1934,0.1944,0.1945,0.1955,0.1934,0.1935,0.1933,0.1919,0.1923,0.1922,0.1921,0.1921,0.1901,0.1901,0,0,0,0,0,0,0.1871,0.1869,0.1932,0.1935,0.1904,0.1928,0.1933,0.1945,0.1936,0.1936,0.1955,0.1955,0.1937,0.1934,0.1932,0.1939,0.1922,0.1921,0.192,0.1901,0.1901,0.1901,0,0,0,0,0,0,0.1869,0.1877,0.1931,0.1905,0.1912,0.1931,0.1944,0.1946,0.195,0.1946,0.1944,0.1958,0.1936,0.1933,0.193,0.1937,0.192,0.1919,0.1901,0.1901,0.1901,0.1945,0,0,0,0,0,0,0.1867,0.1876,0.1882,0.1906,0.1914,0.1951,0.1945,0.1947,0.1958,0.1958,0.1947,0.1945,0.1936,0.1931,0.1929,0.1936,0.1918,0.1901,0.1901,0.1901,0.1943,0.1946,0.1949,0,0,0,0,0,0.1863,0.1877,0.1882,0.189,0.1924,0.1952,0.1955,0.1964,0.1958,0.1965,0.1957,0.1945,0.193,0.1931,0.1928,0.1934,0.1901,0.1901,0.1901,0.1942,0.1946,0.1949,0,0,0,0,0,0,0.1844,0.1879,0.1885,0.1909,0.1932,0.1953,0.1963,0.1966,0.1965,0.1962,0.1949,0.1946,0.1946,0.1932,0.1932,0.1928,0.1912,0.1912,0.1944,0.1948,0.1951,0.1963,0.1918,0,0,0,0,0,0.1844,0.1862,0.1894,0.1912,0.1926,0.1942,0.1953,0.1961,0.1968,0.1968,0.1959,0.1948,0.1944,0.194,0.1932,0.193,0.1971,0.193,0.1933,0.1935,0.1942,0.201,0.2021,0.1902,0.1902,0.1902,0,0,0.1842,0.1864,0.1874,0.1909,0.1926,0.1948,0.1947,0.197,0.1981,0.1964,0.1967,0.1959,0.1946,0.1948,0.1945,0.1937,0.1998,0.1936,0.1938,0.1943,0.2012,0.2024,0.2035,0.1902,0.1902,0.1902,0,0,0.1852,0.1868,0.1888,0.1909,0.1942,0.1953,0.1961,0.1983,0.1985,0.1991,0.1983,0.1982,0.1968,0.1968,0.1964,0.1976,0.2013,0.1968,0.1992,0.2058,0.207,0.208,0.2186,0.2205,0.1967,0.1967,0.1967,0,0.1849,0.188,0.1897,0.1925,0.1942,0.1956,0.1979,0.1988,0.2001,0.2004,0.1996,0.1994,0.198,0.1993,0.1996,0.1984,0.2045,0.1982,0.2066,0.2076,0.2086,0.2192,0.2213,0.1969,0.1969,0.1969,0.1969,0,0.1876,0.1902,0.1918,0.1953,0.1969,0.1994,0.2012,0.202,0.2019,0.2027,0.2038,0.203,0.2031,0.2024,0.2013,0.2065,0.2097,0.2068,0.2065,0.2102,0.221,0.2231,0.1973,0.1972,0.1971,0.1971,0,0,0.1874,0.1927,0.1932,0.195,0.1986,0.2001,0.202,0.2042,0.2057,0.2062,0.2086,0.2077,0.2079,0.2074,0.2067,0.2115,0.2242,0.2124,0.2126,0.2244,0.2439,0.2425,0.2447,0.2238,0.2241,0.2243,0.2502,0,0.1893,0.1942,0.196,0.1995,0.2021,0.2034,0.2049,0.2065,0.2077,0.2103,0.2106,0.2127,0.2097,0.211,0.2152,0.2213,0.2293,0.2177,0.2371,0.2378,0.2373,0.2468,0.2387,0.2607,0.2522,0.2526,0.2528,0,0.1916,0.1946,0.1985,0.2019,0.203,0.2044,0.2069,0.2088,0.2124,0.2135,0.216,0.2175,0.2236,0.2206,0.2359,0.2294,0.2376,0.2428,0.2439,0.2422,0.2402,0.2546,0.2648,0.2555,0.2561,0.2558,0.2556,0,0.1909,0.196,0.1986,0.2002,0.2043,0.205,0.2066,0.2095,0.2107,0.217,0.2199,0.2264,0.2319,0.241,0.2506,0.2456,0.2698,0.2639,0.2717,0.272,0.2684,0.2676,0.2724,0.2775,0.2775,0.2774,0.2773,0,0.1926,0.1949,0.1984,0.2003,0.2018,0.2049,0.2066,0.2092,0.2135,0.2175,0.2219,0.2282,0.2376,0.2504,0.2574,0.273,0.2765,0.276,0.2788,0.2698,0.2689,0.2629,0.2551,0.2784,0.2782,0.278,0.2778,0,0.1921,0.195,0.1978,0.2014,0.2017,0.2028,0.2048,0.2071,0.2123,0.2187,0.2217,0.2338,0.2513,0.2622,0.281,0.2833,0.2891,0.3014,0.2922,0.2931,0.2855,0.2783,0.2784,0.2707,0.3142,0.3144,0.3145,0,0.1926,0.1943,0.1969,0.1978,0.1993,0.2006,0.2018,0.2053,0.209,0.2224,0.2271,0.2453,0.2565,0.2837,0.2942,0.3108,0.2976,0.3121,0.2976,0.2874,0.2815,0.2669,0.2592,0.2981,0.2981,0.298,0.298,0,0.1933,0.1939,0.1962,0.1969,0.1977,0.1981,0.2014,0.2033,0.2112,0.2176,0.2314,0.2415,0.2679,0.2809,0.3019,0.3093,0.2939,0.3118,0.3034,0.2717,0.2542,0.2472,0.2815,0.2977,0.2978,0.2978,0.2978,0.2978,0.193,0.1933,0.1953,0.1958,0.1962,0.1968,0.196,0.2018,0.2061,0.2165,0.2307,0.244,0.2655,0.2918,0.298,0.301,0.2941,0.2937,0.288,0.276,0.2591,0.294,0.3094,0.3094,0.3095,0.3096,0.3097,0,0.1917,0.1927,0.1942,0.1932,0.1922,0.1934,0.1962,0.1957,0.2001,0.2136,0.2237,0.2444,0.259,0.2741,0.285,0.2777,0.2658,0.271,0.2477,0.2428,0.279,0.2682,0.2723,0.2723,0.2723,0.2723,0.2724,0.2724,0.1912,0.1919,0.1925,0.1897,0.1887,0.1847,0.1854,0.1863,0.1933,0.2032,0.2133,0.2264,0.2437,0.2599,0.2577,0.2535,0.2316,0.2255,0.2215,0.245,0.2465,0.2479,0.2361,0.2333,0.2333,0.1779,0.1775,0.1772]},{"header":{"parameterUnit":"m.s-1","parameterCategory":2,"la1":30.2991,"la2":30.254,"lo1":-89.0895,"lo2":-89.0444,"dy":0.0017,"dx":0.0017,"nx":28,"ny":28,"refTime":"2025-09-07T09:00:00:Z","depth":"0","parameterNumber":3,"parameterNumberName":"V-component_of_CURRENTS"},"data":[0,0,0,0,0,0,0,0,0,0,0,0,0,0,0,0,0,0,0,0,0,0,0,0,0,0,0,0,0,0,0,0,0,0,0,0,0,0,0,0,0,0,0,0,0,0,0,0,0,0,0,0,0,0,0,0,0,0,-0.0514,-0.0515,0,-0.0607,-0.0608,-0.0609,-0.0648,-0.0649,-0.0649,-0.0649,-0.0634,-0.0633,-0.0632,0,0,0,0,0,0,0,0,0,0,0,0,0,-0.0377,-0.0378,-0.0514,-0.0515,-0.0517,-0.0607,-0.0608,-0.0609,-0.0648,-0.0649,-0.0649,-0.0649,-0.0634,-0.0633,-0.0632,0,0,0,0,0,0,0,0,0,0,0,0,0,-0.0445,-0.0379,-0.0513,-0.0551,-0.0556,-0.0607,-0.0608,-0.0609,-0.0648,-0.0649,-0.0649,-0.0649,-0.0634,-0.0633,-0.0632,-0.0617,0,0,-0.0629,-0.0629,0,0,0,0,0,0,0,0,-0.0441,-0.0449,-0.0544,-0.0549,-0.0554,-0.0621,-0.0554,-0.0608,-0.0648,-0.0608,-0.0649,-0.065,-0.0622,-0.0622,-0.0633,-0.0616,-0.0615,-0.0629,-0.0628,-0.0628,-0.0628,0,0,0,0,0,0,0,-0.0436,-0.0445,-0.0545,-0.0546,-0.0552,-0.0567,-0.0576,-0.0565,-0.0605,-0.0611,-0.0616,-0.0634,-0.0624,-0.0634,-0.0633,-0.0615,-0.0629,-0.0628,-0.0627,-0.0627,-0.0598,-0.0598,0,0,0,0,0,0,-0.0434,-0.0441,-0.0543,-0.0549,-0.0503,-0.0569,-0.0579,-0.0595,-0.0608,-0.0613,-0.0634,-0.0636,-0.0636,-0.0634,-0.0632,-0.0614,-0.0628,-0.0627,-0.0626,-0.0598,-0.0598,-0.0597,0,0,0,0,0,0,-0.0431,-0.0442,-0.0539,-0.0501,-0.0515,-0.0571,-0.0588,-0.0597,-0.061,-0.0627,-0.0629,-0.0639,-0.0636,-0.0634,-0.0629,-0.0613,-0.0627,-0.0626,-0.0598,-0.0598,-0.0598,-0.0576,0,0,0,0,0,0,-0.0426,-0.044,-0.0438,-0.0501,-0.0518,-0.0562,-0.0589,-0.0598,-0.0623,-0.0626,-0.0632,-0.0631,-0.0636,-0.063,-0.0628,-0.0612,-0.0625,-0.0598,-0.0598,-0.0598,-0.0577,-0.0575,-0.0574,0,0,0,0,0,-0.0421,-0.0413,-0.0437,-0.0449,-0.0516,-0.0562,-0.057,-0.0609,-0.0623,-0.0622,-0.0635,-0.0631,-0.0626,-0.0629,-0.0626,-0.061,-0.0598,-0.0598,-0.0598,-0.0578,-0.0576,-0.0574,0,0,0,0,0,0,-0.0344,-0.0419,-0.0446,-0.0459,-0.0507,-0.0571,-0.0571,-0.0605,-0.0617,-0.0613,-0.0629,-0.0629,-0.0621,-0.0618,-0.0622,-0.0602,-0.0611,-0.061,-0.0597,-0.0595,-0.0593,-0.0562,-0.0624,0,0,0,0,0,-0.033,-0.0346,-0.0422,-0.0429,-0.0452,-0.0511,-0.0531,-0.0563,-0.0593,-0.0599,-0.061,-0.0615,-0.0617,-0.0609,-0.0611,-0.0593,-0.0564,-0.0582,-0.058,-0.0578,-0.0552,-0.0521,-0.0513,-0.0596,-0.0596,-0.0596,0,0,-0.0303,-0.0346,-0.0354,-0.0414,-0.0451,-0.0477,-0.0522,-0.055,-0.0564,-0.0591,-0.0593,-0.0609,-0.0613,-0.0605,-0.0599,-0.0598,-0.0537,-0.0578,-0.0576,-0.055,-0.0519,-0.0511,-0.0503,-0.0596,-0.0596,-0.0596,0,0,-0.0263,-0.0294,-0.0301,-0.034,-0.0401,-0.0439,-0.0448,-0.0512,-0.0528,-0.0543,-0.0567,-0.0571,-0.0576,-0.0577,-0.0577,-0.0561,-0.0536,-0.0567,-0.0522,-0.0493,-0.0485,-0.0478,-0.0417,-0.0405,-0.0559,-0.0559,-0.0559,0,-0.0226,-0.0254,-0.0306,-0.0328,-0.0353,-0.042,-0.0434,-0.046,-0.0512,-0.0508,-0.0535,-0.0539,-0.0557,-0.0532,-0.0541,-0.0554,-0.0524,-0.0531,-0.0488,-0.0481,-0.0474,-0.0413,-0.04,-0.0558,-0.0558,-0.0558,-0.0558,0,-0.0207,-0.0227,-0.0231,-0.0283,-0.0308,-0.033,-0.0386,-0.0399,-0.0429,-0.0454,-0.0445,-0.0474,-0.0466,-0.0487,-0.0513,-0.0473,-0.0463,-0.0496,-0.049,-0.0464,-0.0402,-0.0388,-0.0556,-0.0556,-0.0557,-0.0557,0,0,-0.0137,-0.0205,-0.0207,-0.0224,-0.0289,-0.0308,-0.0317,-0.0341,-0.032,-0.0366,-0.0327,-0.0371,-0.0379,-0.038,-0.0409,-0.0398,-0.0342,-0.0425,-0.0424,-0.0355,-0.0245,-0.0232,-0.0216,-0.0372,-0.037,-0.0368,-0.0216,0,-0.0111,-0.0134,-0.0175,-0.0186,-0.0205,-0.0254,-0.0248,-0.0269,-0.028,-0.0252,-0.0278,-0.0253,-0.0339,-0.032,-0.0328,-0.0332,-0.0307,-0.0378,-0.0287,-0.0283,-0.0268,-0.0201,-0.0217,-0.0083,-0.0203,-0.02,-0.0199,0,-0.0087,-0.0108,-0.0117,-0.0141,-0.0148,-0.0152,-0.0139,-0.0144,-0.0124,-0.0121,-0.0107,-0.0118,-0.0098,-0.0178,-0.0154,-0.0194,-0.0211,-0.0225,-0.022,-0.02,-0.0245,-0.0132,-0.0054,-0.0222,-0.0177,-0.0179,-0.0181,0,-0.0029,-0.0064,-0.0065,-0.0082,-0.0116,-0.0103,-0.0105,-0.0094,-0.0056,-0.0014,0.0048,0.0037,0.0094,0.0041,-0.0,-0.0066,0.0043,-0.0049,-0.0044,-0.0042,-0.0031,-0.0032,-0.0094,-0.0018,-0.0018,-0.0018,-0.0019,0,0.0002,0.0004,-0.0034,-0.0039,-0.0004,-0.0042,0.0019,0.0022,0.0083,0.0182,0.0135,0.0242,0.0151,0.0191,0.0092,0.01,0.0125,0.0004,0.0005,-0.0024,-0.0026,-0.0154,-0.0247,-0.0013,-0.0014,-0.0015,-0.0016,0,0.0056,0.0024,0.0026,0.001,0.0017,0.0046,0.0099,0.0162,0.0205,0.0347,0.0383,0.0445,0.0503,0.0418,0.0394,0.0275,0.0168,0.0227,0.0218,0.0213,0.0009,-0.0082,-0.005,-0.0111,0.0254,0.0255,0.0256,0,0.0079,0.008,0.0076,0.0105,0.0102,0.0142,0.0194,0.0223,0.0316,0.0489,0.0594,0.0699,0.0797,0.077,0.0587,0.047,0.029,0.0358,0.0202,0.0035,-0.0065,-0.0123,-0.0183,0.0238,0.0238,0.0239,0.024,0,0.0131,0.0128,0.0135,0.0194,0.0243,0.0304,0.039,0.0482,0.0574,0.071,0.0931,0.1027,0.1017,0.0925,0.0749,0.0613,0.0235,0.0368,0.0193,-0.0066,-0.0127,-0.0197,0.0115,0.0246,0.0246,0.0245,0.0245,0.0244,0.0187,0.0212,0.0236,0.0298,0.0367,0.049,0.0572,0.0698,0.087,0.1102,0.1175,0.1342,0.1165,0.0928,0.0724,0.0312,0.0314,0.0141,0.006,0.0029,-0.0082,0.0264,0.0379,0.0379,0.0379,0.0379,0.0379,0,0.0256,0.0289,0.0351,0.0434,0.0542,0.0555,0.0726,0.0833,0.1059,0.1263,0.144,0.1464,0.1188,0.0857,0.0338,0.0038,-0.01,-0.0133,-0.0261,-0.03,0.0011,-0.0051,-0.0023,-0.0023,-0.0023,-0.0022,-0.0022,-0.0022,0.0299,0.0368,0.0397,0.0579,0.0654,0.0806,0.0912,0.1081,0.124,0.1497,0.1614,0.1694,0.1418,0.0495,-0.0177,-0.0322,-0.0554,-0.0553,-0.0655,-0.0524,-0.0507,-0.0492,-0.0575,-0.0657,-0.0658,-0.0954,-0.0957,-0.096]}],[{"header":{"parameterUnit":"m.s-1","parameterCategory":2,"la1":30.2991,"la2":30.254,"lo1":-89.0895,"lo2":-89.0444,"dy":0.0017,"dx":0.0017,"nx":28,"ny":28,"refTime":"2025-09-07T09:00:00:Z","depth":"2","parameterNumber":2,"parameterNumberName":"U-component_of_CURRENTS"},"data":[0,0,0,0,0,0,0,0,0,0,0,0,0,0,0,0,0,0,0,0,0,0,0,0,0,0,0,0,0,0,0,0,0,0,0,0,0,0,0,0,0,0,0,0,0,0,0,0,0,0,0,0,0,0,0,0,0,0,0.173,0.173,0,0.1734,0.1734,0.1734,0.173,0.173,0.173,0.173,0.1707,0.1706,0.1706,0,0,0,0,0,0,0,0,0,0,0,0,0,0.1645,0.1647,0.173,0.173,0.1731,0.1734,0.1734,0.1734,0.173,0.173,0.173,0.173,0.1707,0.1706,0.1705,0,0,0,0,0,0,0,0,0,0,0,0,0,0.1667,0.1648,0.173,0.173,0.173,0.1734,0.1734,0.1734,0.173,0.173,0.173,0.173,0.1707,0.1706,0.1705,0.17,0,0,0.1703,0.1702,0,0,0,0,0,0,0,0,0.1666,0.167,0.173,0.173,0.173,0.1733,0.1696,0.1722,0.173,0.1728,0.173,0.173,0.1714,0.1713,0.1711,0.1699,0.1698,0.1703,0.1702,0.1702,0.1701,0,0,0,0,0,0,0,0.1665,0.167,0.173,0.173,0.173,0.1705,0.1708,0.17,0.1719,0.1728,0.1728,0.1732,0.1714,0.1712,0.1711,0.1698,0.1703,0.1702,0.1701,0.1701,0.1697,0.1698,0,0,0,0,0,0,0.1672,0.1669,0.173,0.173,0.17,0.1707,0.1711,0.1731,0.172,0.1719,0.1732,0.1731,0.1714,0.1712,0.171,0.1748,0.1702,0.1701,0.17,0.1697,0.1697,0.1698,0,0,0,0,0,0,0.1671,0.1678,0.173,0.17,0.1705,0.1709,0.1731,0.1731,0.1739,0.1723,0.1721,0.1741,0.1714,0.1711,0.1723,0.1745,0.17,0.1699,0.1696,0.1697,0.1698,0.1794,0,0,0,0,0,0,0.1668,0.1678,0.1702,0.1701,0.1707,0.174,0.1731,0.1731,0.1741,0.1741,0.1731,0.1728,0.1714,0.1725,0.1722,0.1743,0.1699,0.1696,0.1697,0.1697,0.179,0.1798,0.1804,0,0,0,0,0,0.1666,0.1694,0.1703,0.1711,0.1738,0.1741,0.1742,0.1742,0.1742,0.1749,0.175,0.1729,0.1727,0.1725,0.1722,0.1743,0.1695,0.1696,0.1697,0.1787,0.1796,0.1804,0,0,0,0,0,0,0.1652,0.1696,0.1706,0.1743,0.1747,0.1741,0.1751,0.175,0.1756,0.176,0.1743,0.1741,0.1763,0.1732,0.173,0.174,0.1704,0.1704,0.1773,0.1781,0.1788,0.1789,0.1698,0,0,0,0,0,0.1666,0.1716,0.1724,0.1756,0.1758,0.1757,0.1762,0.1762,0.1764,0.1767,0.1762,0.1754,0.1762,0.1757,0.1755,0.1759,0.1767,0.1765,0.1772,0.1779,0.1775,0.1832,0.1845,0.1701,0.1701,0.1701,0,0,0.1679,0.1702,0.1735,0.176,0.1763,0.1767,0.176,0.1771,0.1781,0.1763,0.1781,0.1787,0.1771,0.1789,0.1792,0.1766,0.1824,0.178,0.1786,0.1778,0.1834,0.1849,0.1862,0.1702,0.1702,0.1702,0,0,0.17,0.1738,0.1773,0.1777,0.1787,0.1786,0.1792,0.1794,0.1804,0.182,0.182,0.1842,0.1831,0.1837,0.1836,0.1874,0.1871,0.1866,0.1895,0.1951,0.1964,0.1976,0.2016,0.2031,0.1858,0.1858,0.1858,0,0.1714,0.1747,0.1778,0.1786,0.1791,0.1796,0.1802,0.1813,0.1822,0.1842,0.1833,0.1865,0.1855,0.189,0.1904,0.1893,0.1921,0.1872,0.1965,0.1976,0.1986,0.2025,0.204,0.1863,0.1862,0.1862,0.1861,0,0.1743,0.1763,0.1775,0.1802,0.1812,0.1819,0.1831,0.185,0.1863,0.188,0.1927,0.1929,0.1945,0.1949,0.1938,0.2001,0.1998,0.1984,0.1953,0.2007,0.2043,0.2057,0.187,0.1868,0.1867,0.1865,0,0,0.1788,0.18,0.1802,0.1804,0.1819,0.1827,0.1856,0.1885,0.1923,0.194,0.199,0.2009,0.2026,0.2023,0.2023,0.2061,0.2163,0.2053,0.2054,0.211,0.2292,0.2153,0.2154,0.2181,0.2184,0.2186,0.2294,0,0.1797,0.1805,0.1819,0.1829,0.1827,0.1847,0.188,0.1915,0.1951,0.2004,0.2029,0.2078,0.2049,0.2077,0.2113,0.216,0.2201,0.2134,0.2215,0.2216,0.21,0.2165,0.1999,0.2069,0.2308,0.231,0.2311,0,0.1812,0.1813,0.1818,0.1837,0.1844,0.1867,0.1926,0.1957,0.2034,0.2065,0.2116,0.2146,0.2208,0.2176,0.2277,0.2244,0.2271,0.2296,0.23,0.214,0.2101,0.2047,0.2084,0.2334,0.2332,0.233,0.2329,0,0.1802,0.1813,0.1818,0.1821,0.1848,0.1879,0.1914,0.1986,0.2022,0.212,0.2162,0.2237,0.2281,0.2339,0.2364,0.235,0.2469,0.2455,0.2352,0.2343,0.2195,0.2167,0.2527,0.2527,0.2526,0.2526,0.2526,0,0.1791,0.1796,0.182,0.1817,0.1857,0.1888,0.195,0.2001,0.2075,0.2137,0.22,0.2247,0.2328,0.2389,0.2413,0.2413,0.251,0.2367,0.2364,0.222,0.2195,0.2407,0.2391,0.253,0.2529,0.2529,0.2528,0,0.1767,0.1777,0.1787,0.1824,0.1846,0.1883,0.1952,0.2001,0.2077,0.2159,0.2194,0.2284,0.2359,0.2407,0.2503,0.2455,0.2485,0.2455,0.2263,0.2233,0.2317,0.2306,0.2379,0.2375,0.2372,0.2369,0.2367,0,0.1754,0.1749,0.1789,0.1815,0.1838,0.189,0.1934,0.1998,0.2051,0.2168,0.2213,0.2298,0.2322,0.238,0.2346,0.2354,0.242,0.2181,0.2097,0.2313,0.2305,0.2298,0.2291,0.1966,0.196,0.1956,0.1952,0,0.1721,0.1741,0.1754,0.1802,0.1849,0.1883,0.1955,0.1976,0.2068,0.2113,0.2186,0.2209,0.2244,0.2147,0.2115,0.2096,0.2163,0.2084,0.2405,0.1994,0.1922,0.1913,0.1921,0.1912,0.1916,0.1919,0.1921,0.1923,0.1707,0.1716,0.1739,0.1782,0.1837,0.187,0.1865,0.1928,0.1952,0.1962,0.2064,0.201,0.201,0.1844,0.1803,0.1772,0.1903,0.183,0.1846,0.1866,0.1763,0.1686,0.1614,0.1616,0.1618,0.162,0.1621,0,0.1659,0.1679,0.172,0.175,0.1769,0.1827,0.1867,0.1816,0.1796,0.1806,0.1793,0.1598,0.1518,0.154,0.1428,0.1407,0.1422,0.1358,0.1383,0.1422,0.1457,0.1335,0.1072,0.107,0.1069,0.1067,0,0,0.1631,0.1628,0.1639,0.165,0.1692,0.1669,0.1664,0.1601,0.1573,0.1424,0.1351,0.1387,0.1467,0.1236,0.1212,0.1134,0.127,0.1088,0.1528,0.1595,0.1629,0.1725,0.158,0,0,0,0,0]},{"header":{"parameterUnit":"m.s-1","parameterCategory":2,"la1":30.2991,"la2":30.254,"lo1":-89.0895,"lo2":-89.0444,"dy":0.0017,"dx":0.0017,"nx":28,"ny":28,"refTime":"2025-09-07T09:00:00:Z","depth":"2","parameterNumber":3,"parameterNumberName":"V-component_of_CURRENTS"},"data":[0,0,0,0,0,0,0,0,0,0,0,0,0,0,0,0,0,0,0,0,0,0,0,0,0,0,0,0,0,0,0,0,0,0,0,0,0,0,0,0,0,0,0,0,0,0,0,0,0,0,0,0,0,0,0,0,0,0,-0.0052,-0.0053,0,-0.0135,-0.0136,-0.0137,-0.022,-0.0221,-0.0222,-0.0222,-0.0299,-0.0301,-0.0302,0,0,0,0,0,0,0,0,0,0,0,0,0,-0.0016,-0.0016,-0.0052,-0.0053,-0.0054,-0.0135,-0.0136,-0.0138,-0.022,-0.0221,-0.0222,-0.0223,-0.0299,-0.0301,-0.0302,0,0,0,0,0,0,0,0,0,0,0,0,0,-0.0063,-0.0016,-0.0052,-0.0101,-0.0106,-0.0134,-0.0136,-0.0138,-0.022,-0.0221,-0.0222,-0.0223,-0.0298,-0.03,-0.0302,-0.0296,0,0,-0.0309,-0.031,0,0,0,0,0,0,0,0,-0.006,-0.0065,-0.0093,-0.0098,-0.0103,-0.0164,-0.0151,-0.0189,-0.022,-0.0182,-0.0222,-0.0224,-0.025,-0.0256,-0.0276,-0.0299,-0.0303,-0.0309,-0.0311,-0.0311,-0.0312,0,0,0,0,0,0,0,-0.0056,-0.0062,-0.009,-0.0094,-0.01,-0.0135,-0.0143,-0.016,-0.0213,-0.0185,-0.019,-0.0191,-0.0253,-0.0274,-0.0278,-0.0304,-0.0309,-0.0311,-0.0312,-0.0313,-0.0356,-0.0356,0,0,0,0,0,0,-0.0033,-0.0058,-0.0087,-0.0092,-0.0078,-0.0134,-0.0143,-0.0147,-0.0213,-0.0223,-0.019,-0.0195,-0.027,-0.0276,-0.0281,-0.0336,-0.0311,-0.0313,-0.0315,-0.0357,-0.0356,-0.0356,0,0,0,0,0,0,-0.0032,-0.0035,-0.0084,-0.0073,-0.0081,-0.0133,-0.0137,-0.0148,-0.0186,-0.0216,-0.0227,-0.0217,-0.0271,-0.0278,-0.0322,-0.0337,-0.0314,-0.0316,-0.0357,-0.0356,-0.0356,-0.0406,0,0,0,0,0,0,-0.003,-0.0034,-0.005,-0.0071,-0.0081,-0.0106,-0.0136,-0.0149,-0.0181,-0.0188,-0.0242,-0.0249,-0.0272,-0.0319,-0.0324,-0.034,-0.0318,-0.0357,-0.0357,-0.0356,-0.0405,-0.0408,-0.0411,0,0,0,0,0,-0.0029,-0.0038,-0.005,-0.0055,-0.0094,-0.0106,-0.0115,-0.0158,-0.0181,-0.0197,-0.0244,-0.0249,-0.032,-0.0321,-0.0327,-0.0344,-0.0357,-0.0357,-0.0356,-0.0404,-0.0407,-0.041,0,0,0,0,0,0,-0.0021,-0.0047,-0.0062,-0.0076,-0.0092,-0.0118,-0.0138,-0.0161,-0.0212,-0.0226,-0.0261,-0.0272,-0.0321,-0.0312,-0.0313,-0.035,-0.0333,-0.0334,-0.0366,-0.037,-0.0373,-0.0326,-0.032,0,0,0,0,0,-0.0025,-0.0053,-0.0061,-0.0079,-0.0079,-0.0111,-0.0128,-0.0151,-0.0185,-0.021,-0.025,-0.0282,-0.0319,-0.033,-0.0363,-0.0378,-0.0351,-0.0384,-0.0387,-0.039,-0.0353,-0.033,-0.0327,-0.0355,-0.0355,-0.0355,0,0,-0.0032,-0.0046,-0.0066,-0.0082,-0.0098,-0.0099,-0.0126,-0.0146,-0.0167,-0.0206,-0.0264,-0.0308,-0.033,-0.037,-0.0385,-0.0365,-0.0375,-0.0389,-0.0392,-0.0352,-0.0329,-0.0327,-0.0324,-0.0355,-0.0355,-0.0355,0,0,-0.0033,-0.006,-0.0072,-0.0079,-0.0094,-0.0109,-0.0112,-0.0143,-0.018,-0.0226,-0.0271,-0.0313,-0.0363,-0.0385,-0.0399,-0.0421,-0.0406,-0.0434,-0.0398,-0.0379,-0.0376,-0.0373,-0.0371,-0.0367,-0.0418,-0.0418,-0.0418,0,-0.0039,-0.0046,-0.0076,-0.007,-0.0076,-0.0107,-0.0101,-0.0137,-0.0191,-0.0213,-0.0245,-0.0319,-0.0362,-0.0382,-0.0407,-0.0428,-0.0415,-0.0396,-0.0383,-0.0379,-0.0375,-0.0373,-0.0368,-0.042,-0.042,-0.042,-0.0419,0,-0.0035,-0.004,-0.0039,-0.005,-0.0064,-0.0065,-0.0093,-0.0128,-0.0176,-0.0207,-0.0259,-0.0316,-0.0337,-0.0377,-0.0409,-0.0404,-0.0407,-0.041,-0.0378,-0.0376,-0.0374,-0.0368,-0.0423,-0.0423,-0.0422,-0.0421,0,0,-0.0033,-0.0039,-0.0035,-0.0033,-0.0052,-0.0056,-0.0088,-0.0114,-0.012,-0.0192,-0.0186,-0.0288,-0.0302,-0.0314,-0.0355,-0.0349,-0.0358,-0.0365,-0.0363,-0.0366,-0.0323,-0.0372,-0.0371,-0.0362,-0.036,-0.0359,-0.0346,0,-0.0014,0.0003,-0.0012,-0.0005,0.0007,-0.0028,-0.0048,-0.0084,-0.0119,-0.0125,-0.0176,-0.0191,-0.028,-0.0278,-0.0297,-0.0327,-0.0337,-0.0361,-0.0317,-0.0315,-0.0362,-0.0363,-0.0341,-0.033,-0.034,-0.0339,-0.0338,0,0.001,0.0017,0.0032,0.0029,0.0032,0.0022,0.0004,-0.0014,-0.0032,-0.0049,-0.0061,-0.0085,-0.0097,-0.0156,-0.0199,-0.0209,-0.0265,-0.0298,-0.0298,-0.0307,-0.0352,-0.0324,-0.0319,-0.0328,-0.0329,-0.0329,-0.033,0,0.0038,0.0051,0.0059,0.0058,0.0049,0.0037,0.0026,0.0003,0.0021,0.0032,0.0081,0.0034,0.0059,-0.0009,-0.0117,-0.0139,-0.0153,-0.0184,-0.0286,-0.0291,-0.0239,-0.0242,-0.0205,-0.0205,-0.0205,-0.0205,-0.0205,0,0.0071,0.0082,0.0072,0.008,0.0092,0.0069,0.0092,0.0079,0.0122,0.0186,0.0142,0.0202,0.0101,0.0069,-0.005,-0.0152,-0.0104,-0.0264,-0.0281,-0.0262,-0.0267,-0.0227,-0.0229,-0.0205,-0.0205,-0.0205,-0.0205,0,0.0104,0.0099,0.0115,0.0107,0.0109,0.0115,0.0155,0.0196,0.0222,0.033,0.036,0.0358,0.0304,0.0174,0.0073,-0.0048,-0.015,-0.0209,-0.0197,-0.0214,-0.0316,-0.0321,-0.0283,-0.0284,-0.0285,-0.0286,-0.0287,0,0.012,0.0131,0.014,0.0166,0.0163,0.0182,0.022,0.0242,0.032,0.0421,0.0505,0.0486,0.0461,0.0276,0.007,-0.0127,-0.0167,-0.0233,-0.0278,-0.0298,-0.0319,-0.0322,-0.0326,-0.0239,-0.024,-0.024,-0.024,0,0.0153,0.015,0.0166,0.0223,0.0259,0.0318,0.0382,0.0455,0.0522,0.0601,0.0692,0.0677,0.0508,0.0307,0.0029,-0.0105,-0.02,-0.0247,-0.023,-0.024,-0.0261,-0.028,-0.0284,-0.0243,-0.0243,-0.0242,-0.0242,-0.0242,0.0174,0.0194,0.0226,0.0277,0.035,0.0453,0.0501,0.0599,0.0699,0.0805,0.079,0.0755,0.0552,0.0179,-0.0022,-0.0225,-0.0237,-0.0309,-0.0306,-0.0303,-0.0317,-0.0341,-0.0341,-0.0341,-0.0341,-0.0342,-0.0342,0,0.02,0.0229,0.0289,0.0357,0.0456,0.0486,0.0621,0.0683,0.079,0.0844,0.0863,0.066,0.0436,0.0216,-0.0088,-0.0282,-0.0279,-0.0332,-0.0282,-0.0279,-0.0277,-0.0287,-0.0304,-0.0305,-0.0305,-0.0305,0,0,0.0215,0.0265,0.0295,0.0434,0.0506,0.0632,0.0706,0.0805,0.0867,0.0869,0.0828,0.0734,0.0483,0.027,0.002,-0.0132,-0.0158,-0.0163,-0.0178,-0.0088,-0.0082,-0.0256,-0.0269,0,0,0,0,0]}],[{"header":{"parameterUnit":"m.s-1","parameterCategory":2,"la1":30.2991,"la2":30.254,"lo1":-89.0895,"lo2":-89.0444,"dy":0.0017,"dx":0.0017,"nx":28,"ny":28,"refTime":"2025-09-07T09:00:00:Z","depth":"4","parameterNumber":2,"parameterNumberName":"U-component_of_CURRENTS"},"data":[0,0,0,0,0,0,0,0,0,0,0,0,0,0,0,0,0,0,0,0,0,0,0,0,0,0,0,0,0,0,0,0,0,0,0,0,0,0,0,0,0,0,0,0,0,0,0,0,0,0,0,0,0,0,0,0,0,0,0.0502,0.0502,0,0.0552,0.0552,0.0553,0.062,0.0621,0.0621,0.0622,0.0752,0.0755,0.0757,0,0,0,0,0,0,0,0,0,0,0,0,0,0.0516,0.0515,0.0502,0.0502,0.0503,0.0552,0.0553,0.0553,0.062,0.0621,0.0622,0.0623,0.0751,0.0754,0.0758,0,0,0,0,0,0,0,0,0,0,0,0,0,0.0534,0.0515,0.0502,0.054,0.0543,0.0551,0.0553,0.0554,0.0619,0.0621,0.0622,0.0623,0.075,0.0754,0.0758,0.0757,0,0,0.077,0.0772,0,0,0,0,0,0,0,0,0.0533,0.0534,0.0534,0.0537,0.0541,0.0578,0.0605,0.0625,0.0619,0.0593,0.0622,0.0624,0.0699,0.0707,0.0716,0.0763,0.0769,0.0771,0.0773,0.0775,0.0776,0,0,0,0,0,0,0,0.0532,0.0533,0.0525,0.0534,0.0538,0.0571,0.0575,0.0609,0.0642,0.0596,0.06,0.0601,0.0702,0.0712,0.072,0.0771,0.0771,0.0774,0.0777,0.0778,0.0919,0.0921,0,0,0,0,0,0,0.0516,0.0531,0.0523,0.0526,0.0537,0.057,0.0574,0.0567,0.064,0.0651,0.06,0.0604,0.0705,0.0715,0.0725,0.0802,0.0775,0.0779,0.0781,0.0918,0.092,0.0921,0,0,0,0,0,0,0.0516,0.0514,0.0521,0.0528,0.0531,0.0567,0.056,0.0568,0.0606,0.0641,0.0655,0.0632,0.0706,0.0719,0.0769,0.0805,0.078,0.0784,0.0916,0.0919,0.092,0.091,0,0,0,0,0,0,0.0516,0.0514,0.0517,0.0526,0.053,0.054,0.0558,0.0568,0.0601,0.0608,0.0673,0.0685,0.0708,0.0763,0.0773,0.081,0.0787,0.0915,0.0917,0.092,0.0908,0.0911,0.0913,0,0,0,0,0,0.0516,0.0512,0.0516,0.0516,0.0528,0.054,0.0546,0.0578,0.0602,0.0618,0.0659,0.0685,0.0788,0.0766,0.0778,0.0818,0.0914,0.0917,0.092,0.0907,0.091,0.0913,0,0,0,0,0,0,0.0528,0.0518,0.0523,0.0519,0.0534,0.0551,0.0568,0.059,0.0634,0.0646,0.069,0.0704,0.0766,0.079,0.0766,0.0868,0.086,0.0866,0.0847,0.085,0.0853,0.086,0.079,0,0,0,0,0,0.0525,0.0517,0.0521,0.0521,0.0527,0.0552,0.0567,0.0584,0.0615,0.0637,0.0683,0.0734,0.0783,0.0814,0.0855,0.0901,0.0918,0.0939,0.0942,0.0944,0.0959,0.0995,0.1002,0.0931,0.0931,0.0931,0,0,0.0526,0.0523,0.0518,0.0523,0.0537,0.0552,0.0566,0.0586,0.0613,0.0643,0.0706,0.0745,0.0797,0.085,0.0882,0.0878,0.0971,0.0947,0.0948,0.0964,0.0999,0.1006,0.1012,0.0933,0.0933,0.0932,0,0,0.0519,0.0525,0.0515,0.0528,0.0543,0.0562,0.0573,0.0601,0.0632,0.0682,0.0715,0.0767,0.0847,0.0881,0.0911,0.0954,0.0982,0.0983,0.1004,0.1037,0.1043,0.1049,0.1064,0.1071,0.0984,0.0984,0.0984,0,0.0513,0.0511,0.0519,0.0522,0.0536,0.0571,0.0579,0.0614,0.066,0.0692,0.0708,0.0835,0.0863,0.0937,0.0949,0.096,0.0981,0.0982,0.1039,0.1045,0.105,0.1066,0.1073,0.0984,0.0984,0.0984,0.0984,0,0.0508,0.051,0.0512,0.0525,0.0547,0.0558,0.0597,0.0642,0.0692,0.0727,0.0819,0.0862,0.0944,0.0959,0.0967,0.1033,0.1035,0.1033,0.1024,0.1056,0.1071,0.1079,0.0984,0.0984,0.0984,0.0984,0,0,0.0464,0.0494,0.0499,0.0511,0.0547,0.0566,0.062,0.0675,0.0734,0.0797,0.0877,0.0945,0.0985,0.1022,0.1048,0.1071,0.1106,0.1071,0.1073,0.1075,0.1179,0.1085,0.1085,0.1117,0.1119,0.1121,0.1166,0,0.0452,0.046,0.0487,0.0517,0.0519,0.0579,0.0638,0.07,0.0766,0.0854,0.0919,0.1004,0.1007,0.1056,0.1083,0.1108,0.1131,0.1094,0.1159,0.1161,0.1064,0.1092,0.1126,0.1172,0.1174,0.1176,0.1177,0,0.043,0.0441,0.0456,0.0515,0.0529,0.0573,0.0679,0.0735,0.0853,0.091,0.1004,0.1062,0.1133,0.1125,0.1194,0.1175,0.1184,0.119,0.1192,0.1119,0.1083,0.114,0.1192,0.119,0.1189,0.1188,0.1187,0,0.0383,0.0421,0.0439,0.0454,0.0529,0.058,0.0648,0.0757,0.0817,0.0954,0.1015,0.1117,0.1185,0.1218,0.1232,0.1227,0.1288,0.1279,0.1206,0.1199,0.1274,0.1268,0.1329,0.1329,0.1329,0.1328,0.1328,0,0.0342,0.0361,0.0432,0.0437,0.0499,0.0571,0.0661,0.0746,0.0871,0.095,0.1049,0.1122,0.1214,0.1257,0.1258,0.1251,0.1313,0.122,0.121,0.1266,0.1259,0.1278,0.1272,0.133,0.133,0.1329,0.1329,0,0.0284,0.0323,0.0339,0.0426,0.0466,0.0518,0.0652,0.0722,0.0848,0.0956,0.1003,0.1141,0.1206,0.1255,0.1311,0.1277,0.1275,0.1254,0.1305,0.1296,0.1161,0.1154,0.1194,0.1191,0.1189,0.1187,0.1185,0,0.0261,0.0251,0.0319,0.035,0.0397,0.0489,0.0559,0.0694,0.0764,0.095,0.0993,0.1112,0.1186,0.1193,0.1244,0.1249,0.1232,0.1223,0.1201,0.1163,0.1151,0.1147,0.1143,0.1181,0.1181,0.118,0.1179,0,0.0195,0.0215,0.0239,0.0289,0.0352,0.0426,0.0536,0.0574,0.0745,0.0853,0.0971,0.1034,0.1108,0.1155,0.1165,0.1162,0.1225,0.1199,0.1204,0.1183,0.1148,0.1137,0.1136,0.1171,0.1172,0.1173,0.1173,0,0.0156,0.0151,0.0177,0.0231,0.0297,0.0361,0.0423,0.0533,0.0617,0.0828,0.0857,0.0988,0.1103,0.1109,0.111,0.1107,0.11,0.1064,0.1076,0.1085,0.1026,0.0964,0.0931,0,0,0,0,0,0.0122,0.0111,0.0132,0.0177,0.0243,0.0296,0.0415,0.0487,0.0631,0.0691,0.0784,0.0854,0.0926,0.0981,0.0958,0.1038,0.1077,0.1003,0.1033,0.1125,0.1135,0.1073,0,0,0,0,0,0,0.009,0.0097,0.0099,0.0128,0.0167,0.0238,0.0313,0.0416,0.0463,0.0618,0.0657,0.0784,0.0848,0.0924,0.0935,0.0949,0.0946,0.1079,0.1076,0.112,0.1128,0.1136,0.1076,0,0,0,0,0]},{"header":{"parameterUnit":"m.s-1","parameterCategory":2,"la1":30.2991,"la2":30.254,"lo1":-89.0895,"lo2":-89.0444,"dy":0.0017,"dx":0.0017,"nx":28,"ny":28,"refTime":"2025-09-07T09:00:00:Z","depth":"4","parameterNumber":3,"parameterNumberName":"V-component_of_CURRENTS"},"data":[0,0,0,0,0,0,0,0,0,0,0,0,0,0,0,0,0,0,0,0,0,0,0,0,0,0,0,0,0,0,0,0,0,0,0,0,0,0,0,0,0,0,0,0,0,0,0,0,0,0,0,0,0,0,0,0,0,0,0.037,0.037,0,0.0341,0.0341,0.0341,0.0312,0.0312,0.0312,0.0311,0.0224,0.0222,0.022,0,0,0,0,0,0,0,0,0,0,0,0,0,0.0356,0.0357,0.037,0.037,0.037,0.0342,0.0341,0.034,0.0312,0.0312,0.0311,0.0311,0.0225,0.0222,0.022,0,0,0,0,0,0,0,0,0,0,0,0,0,0.0347,0.0357,0.037,0.0353,0.0351,0.0342,0.0341,0.034,0.0312,0.0312,0.0311,0.0311,0.0226,0.0222,0.0219,0.0207,0,0,0.021,0.0208,0,0,0,0,0,0,0,0,0.0348,0.0348,0.0356,0.0354,0.0352,0.0331,0.0304,0.0293,0.0312,0.0326,0.0311,0.0311,0.0256,0.025,0.0244,0.0203,0.0199,0.0209,0.0208,0.0206,0.0205,0,0,0,0,0,0,0,0.0349,0.0348,0.0357,0.0356,0.0354,0.0332,0.0331,0.0302,0.0291,0.0324,0.0323,0.0322,0.0254,0.0247,0.0242,0.0198,0.021,0.0207,0.0205,0.0204,0.0142,0.0142,0,0,0,0,0,0,0.0358,0.0349,0.0358,0.0356,0.0351,0.0333,0.0331,0.0337,0.0292,0.0286,0.0322,0.0321,0.0253,0.0246,0.0239,0.0231,0.0206,0.0203,0.0201,0.0142,0.0142,0.0142,0,0,0,0,0,0,0.0358,0.0359,0.0359,0.0353,0.0352,0.0334,0.0341,0.0337,0.0334,0.0292,0.0284,0.0324,0.0252,0.0243,0.0223,0.0227,0.0202,0.0199,0.0141,0.0142,0.0142,0.021,0,0,0,0,0,0,0.0358,0.036,0.0369,0.0354,0.0352,0.0356,0.0341,0.0337,0.0334,0.0332,0.029,0.0282,0.0251,0.0228,0.022,0.0222,0.0197,0.0141,0.0141,0.0142,0.0208,0.0213,0.0217,0,0,0,0,0,0.0357,0.0367,0.037,0.0371,0.0366,0.0357,0.0354,0.0338,0.0335,0.0334,0.0313,0.0283,0.0225,0.0227,0.0217,0.0218,0.0141,0.0141,0.0142,0.0205,0.0212,0.0217,0,0,0,0,0,0,0.0353,0.0365,0.0368,0.0378,0.0372,0.0352,0.0352,0.0345,0.0329,0.0329,0.0289,0.0279,0.0263,0.0232,0.0234,0.0201,0.0176,0.0175,0.0228,0.0233,0.0238,0.0225,0.0194,0,0,0,0,0,0.0363,0.0382,0.0377,0.0386,0.0385,0.0373,0.0369,0.0362,0.0346,0.0339,0.0312,0.0282,0.0257,0.024,0.0212,0.0196,0.0144,0.0188,0.0193,0.0197,0.018,0.0118,0.0115,0.0144,0.0144,0.0144,0,0,0.0363,0.0373,0.0382,0.0388,0.0383,0.0385,0.0369,0.0369,0.0369,0.0331,0.0323,0.0299,0.0257,0.0241,0.023,0.0216,0.0165,0.0198,0.0202,0.0182,0.0118,0.0115,0.0112,0.0144,0.0144,0.0144,0,0,0.037,0.0384,0.04,0.0402,0.0406,0.0398,0.0402,0.039,0.0385,0.0378,0.0352,0.0331,0.0294,0.0265,0.0245,0.0257,0.0195,0.0251,0.0261,0.0202,0.0199,0.0196,0.0138,0.0129,0.0251,0.0251,0.0251,0,0.0368,0.0393,0.0399,0.0412,0.0414,0.0407,0.0413,0.0408,0.0393,0.0386,0.0382,0.0326,0.0302,0.0268,0.0277,0.0267,0.0221,0.0248,0.0208,0.0203,0.0199,0.014,0.0129,0.0254,0.0254,0.0254,0.0253,0,0.0385,0.0406,0.0412,0.0433,0.0434,0.044,0.0435,0.0438,0.0434,0.042,0.0394,0.036,0.0319,0.0318,0.0302,0.026,0.0235,0.0226,0.0195,0.02,0.0138,0.0125,0.0259,0.0258,0.0257,0.0256,0,0,0.0373,0.0418,0.0422,0.044,0.0449,0.0452,0.0457,0.0452,0.0448,0.0432,0.0406,0.0381,0.0354,0.0328,0.0303,0.0259,0.0204,0.0232,0.0227,0.0176,0.0066,0.0093,0.0081,0.0187,0.0185,0.0183,0.0041,0,0.0382,0.0422,0.0435,0.0462,0.0476,0.0478,0.0483,0.0479,0.0462,0.0436,0.0398,0.0365,0.036,0.0338,0.0295,0.022,0.017,0.0242,0.0065,0.006,0.0084,0.0067,0.0177,0.0031,0.0028,0.0025,0.0024,0,0.039,0.0419,0.0456,0.0489,0.0494,0.0508,0.051,0.0511,0.0476,0.0457,0.0412,0.0369,0.0304,0.0299,0.0164,0.0208,0.0139,0.0084,0.0077,0.0063,0.0062,0.0019,-0.0,0.0001,0.0003,0.0005,0.0006,0,0.0387,0.043,0.0467,0.0479,0.0511,0.0527,0.0536,0.0519,0.0509,0.0458,0.0425,0.0348,0.0291,0.0199,0.01,0.0119,-0.0059,-0.0048,-0.0094,-0.0093,-0.0105,-0.01,-0.0156,-0.0156,-0.0155,-0.0155,-0.0155,0,0.039,0.0419,0.0477,0.0496,0.0527,0.0544,0.0553,0.0548,0.0516,0.0486,0.0432,0.0373,0.026,0.0153,0.0074,-0.0052,-0.0085,-0.0109,-0.0133,-0.007,-0.006,-0.0114,-0.0107,-0.016,-0.0159,-0.0158,-0.0157,0,0.0383,0.0423,0.0461,0.0511,0.053,0.0548,0.0569,0.0563,0.0539,0.0487,0.0465,0.0364,0.0233,0.0119,-0.0046,-0.0089,-0.0206,-0.0241,-0.0176,-0.0191,-0.0197,-0.0185,-0.0316,-0.0317,-0.0317,-0.0317,-0.0317,0,0.0381,0.0407,0.047,0.0491,0.0519,0.0553,0.057,0.0571,0.055,0.0478,0.0438,0.0314,0.0239,0.0018,-0.0083,-0.0245,-0.025,-0.031,-0.0241,-0.0206,-0.0216,-0.0203,-0.0191,-0.0318,-0.0318,-0.0318,-0.0318,0,0.0368,0.0399,0.0435,0.0478,0.0509,0.0534,0.0552,0.0536,0.0518,0.0499,0.0399,0.0299,0.015,0.0012,-0.0114,-0.0221,-0.0268,-0.0313,-0.0313,-0.0249,-0.021,-0.0216,-0.0204,-0.0319,-0.0319,-0.0319,-0.0319,0,0.0353,0.0371,0.0422,0.045,0.0488,0.0497,0.0514,0.0496,0.048,0.0414,0.038,0.0248,0.0174,0.0021,-0.0095,-0.0195,-0.0206,-0.0216,-0.0221,-0.0221,-0.0129,-0.0061,-0.0161,0,0,0,0,0,0.0332,0.0354,0.0386,0.0415,0.045,0.0471,0.0491,0.0501,0.0486,0.042,0.0404,0.0277,0.0114,0.0036,-0.0062,-0.01,-0.0227,-0.0216,-0.0242,-0.0325,-0.0323,-0.0225,0,0,0,0,0,0,0.032,0.0359,0.0376,0.0378,0.0393,0.0423,0.0438,0.0434,0.0397,0.038,0.0288,0.0267,0.0099,0.0162,-0.0064,-0.0093,-0.0117,-0.0288,-0.0289,-0.0325,-0.0324,-0.0323,-0.0222,0,0,0,0,0]}]]